San Jose, Costa Rica

12:55 AM CST on February 21, 2017 (GMT -0600)
Juan Santamaria International

Weather History for MROC - December, 2012

Change the Weather History Date:

Sunday, December 9, 2012

  Actual Average Record
Temperature  
Mean Temperature 73 °F -  
Max Temperature 85 °F 79 °F 85 °F (2012)
Min Temperature 61 °F 64 °F 61 °F (2012)
Cooling Degree Days 8    
Growing Degree Days 23 (Base 50)    
Moisture  
Dew Point 59 °F    
Average Humidity 62    
Maximum Humidity 82    
Minimum Humidity 31    
Precipitation  
Precipitation 0.00 in 0.03 in - ()
Sea Level Pressure  
Sea Level Pressure 29.95 in    
Wind  
Wind Speed 7 mph ()    
Max Wind Speed 14 mph    
Max Gust Speed 23 mph    
Visibility 8.2 miles    
Events      
Averages and records for this station are not official NWS values.
T = Trace of Precipitation, MM = Missing Value Source: Averaged Metar Reports

Daily Weather History Graph

Daily Weather History Graph

Search for Another Location

Airport or City:

Trip Planner

Search our weather history database for the weather conditions in past years. The results will help you decide how hot, cold, wet, or windy it might be!

Date:

Astronomy

Dec. 09, 2012 Rise Set
Actual Time 5:42 AM CST 5:16 PM CST
Civil Twilight 5:20 AM CST 5:38 PM CST
Nautical Twilight 4:53 AM CST 6:05 PM CST
Astronomical Twilight 4:27 AM CST 6:31 PM CST
Moon 1:47 AM CST (12/9) 1:55 PM CST (12/9)
Length of Visible Light 12h 18m
Length of Day
11h 33m
Waning Crescent, 18% of the Moon is Illuminated
Dec 9
Waning Crescent
Dec 13
New
Dec 19
First Quarter
Dec 28
Full
Jan 4
Last Quarter

Hourly Weather History & Observations

Time (CST) Temp. Heat Index Dew Point Humidity Pressure Visibility Wind Dir Wind Speed Gust Speed Precip Events Conditions
12:00 AM 66 °F - 58 °F 69% 29.87 in 12 mi NE 5.8 mph - -  
12:00 AM 66.2 °F - 59.0 °F 78% 30.01 in - NE 5.8 mph - N/A   Clear
1:00 AM 64.4 °F - 57.2 °F 77% 30.00 in - ENE 4.6 mph - N/A   Clear
2:00 AM 62.6 °F - 57.2 °F 82% 29.98 in - NNE 4.6 mph - N/A   Clear
3:00 AM 62.6 °F - 57.2 °F 82% 29.97 in - NE 8.1 mph - N/A   Clear
4:00 AM 62.6 °F - 55.4 °F 77% 29.99 in - ENE 5.8 mph - N/A   Clear
5:00 AM 62.6 °F - 55.4 °F 77% 30.00 in - NE 9.2 mph - N/A   Clear
6:00 AM 63 °F - 56 °F 71% 29.90 in 12 mi ENE 5.8 mph - -  
6:00 AM 62.6 °F - 55.4 °F 77% 30.01 in - ENE 5.8 mph - N/A   Clear
7:00 AM 68.0 °F - 57.2 °F 68% 30.02 in - ENE 6.9 mph - N/A   Clear
8:00 AM 73.4 °F - 57.2 °F 57% 30.04 in - East 8.1 mph - N/A   Clear
9:00 AM 79 °F - 57 °F 37% 29.85 in 12 mi ESE 9.2 mph - -   Scattered Clouds
9:00 AM 75.2 °F - 57.2 °F 53% 30.02 in - ESE 9.2 mph - N/A   Clear
10:00 AM 80.6 °F 80.5 °F 55.4 °F 42% 30.02 in - ESE 11.5 mph - N/A   Clear
11:00 AM 82.4 °F 82.0 °F 57.2 °F 42% 30.00 in 6.2 mi East 10.4 mph - N/A   Partly Cloudy
12:00 PM 84 °F - 58 °F 31% 29.80 in 12 mi SE 9.2 mph - -   Scattered Clouds
12:00 PM 84.2 °F 83.8 °F 59.0 °F 42% 29.97 in 6.2 mi SE 9.2 mph - N/A   Partly Cloudy
1:00 PM 84.2 °F 83.8 °F 59.0 °F 42% 29.95 in 6.2 mi SE 8.1 mph - N/A   Scattered Clouds
2:00 PM 84.2 °F 83.8 °F 59.0 °F 42% 29.93 in 6.2 mi SE 8.1 mph - N/A   Scattered Clouds
3:00 PM 81 °F - 67 °F 55% 29.79 in 12 mi WSW 11.5 mph - -   Scattered Clouds
3:00 PM 80.6 °F 83.2 °F 68.0 °F 65% 29.93 in 6.2 mi WSW 11.5 mph - N/A   Scattered Clouds
4:00 PM 78.8 °F - 66.2 °F 65% 29.94 in 6.2 mi South 8.1 mph - N/A   Scattered Clouds
5:00 PM 75.2 °F - 62.6 °F 65% 29.94 in 6.2 mi ESE 13.8 mph - N/A   Scattered Clouds
6:00 PM 73 °F - 61 °F 58% 29.83 in 12 mi ESE 9.2 mph - -   Scattered Clouds
6:00 PM 73.4 °F - 60.8 °F 65% 29.96 in 6.2 mi ESE 9.2 mph - N/A   Partly Cloudy
7:00 PM 71.6 °F - 62.6 °F 73% 29.97 in 6.2 mi East 8.1 mph - N/A   Partly Cloudy
8:00 PM 71.6 °F - 62.6 °F 73% 29.99 in 6.2 mi East 4.6 mph - N/A   Partly Cloudy
9:00 PM 71 °F - 62 °F 64% 29.82 in 12 mi ENE 11.5 mph - -   Scattered Clouds
9:00 PM 71.6 °F - 60.8 °F 69% 29.99 in 6.2 mi ENE 11.5 mph - N/A   Partly Cloudy
10:00 PM 71.6 °F - 60.8 °F 69% 29.99 in 6.2 mi ESE 11.5 mph 23.0 mph N/A   Partly Cloudy
11:00 PM 71.6 °F - 60.8 °F 69% 29.99 in 6.2 mi ESE 5.8 mph 17.3 mph N/A   Partly Cloudy